Location: Sawmill Trailhead
(33.5800°N, 116.4497°W)
Time: 16:09:20
(UTC-07:00)

Uosat F - Visible Passes

Search period start: 02 July 2015 00:00
Search period end: 12 July 2015 00:00
Orbit: 752 x 761 km, 98.7° (Epoch: 01 July)

Date Brightness Start Highest point End Pass type
(mag) Time Alt. Az. Time Alt. Az. Time Alt. Az.
02 Jul 13.0 05:08:16 10° NE 05:12:42 31° E 05:17:10 10° SSE visible
03 Jul 13.9 04:31:20 10° ENE 04:32:56 12° E 04:34:54 10° ESE visible
05 Jul 13.6 04:49:47 10° NE 04:53:19 20° E 04:57:00 10° SE visible
07 Jul 12.9 05:09:10 10° NE 05:13:36 31° E 05:18:05 10° SSE visible
08 Jul 13.9 04:32:13 10° ENE 04:33:51 12° E 04:35:50 10° ESE visible
10 Jul 13.6 04:50:42 10° NE 04:54:13 20° E 04:57:55 10° SE visible
